"Data set title: Gaging station water sample data. Usage: Event based table used with water chemistry collection from 01-Oct-2018 to 30-Sep-2019",,,,,,,,,,,,
,,,,,,,,,,,,,
"Site","Date","RecNum","SiteID","Flag_SiteID","LOGGERID","PROGID","VNOTCH_INST_0_0_01","Flag_VNOTCH_INST_0_0_01","SAMPLE_INST_0_0_01","Flag_SAMPLE_INST_0_0_01","STAGE_INST_0_0_01","Flag_STAGE_INST_0_0_01"
"","yyyy-MM-dd HH:mm:ss","count","","none","none","none","none","none","count","none","ft","none"
"nominal","datetime","nominal","data","code","nominal","nominal","data","code","data","code","data","code"
"GSWS09_121",2018-10-01 09:40:45,621,109.00,"",121,36360.0,0,"",36,"",0.0010,""
"GSWS09_121",2018-10-01 22:58:45,622,109.00,"",121,36360.0,0,"",37,"",0.0010,""
"GSWS09_121",2018-10-02 12:16:45,623,109.00,"",121,36360.0,0,"",38,"",0.0010,""
"GSWS09_121",2018-10-03 01:34:45,624,109.00,"",121,36360.0,0,"",39,"",0.0010,""
"GSWS09_121",2018-10-03 09:49:45,625,109.00,"",121,36360.0,0,"",40,"",0.0010,""
"GSWS09_121",2018-10-04 00:14:00,0,109.00,"",121,28153.0,0,"",1,"",0.0010,""
"GSWS09_121",2018-10-04 13:32:00,1,109.00,"",121,28153.0,0,"",2,"",0.0010,""
"GSWS09_121",2018-10-05 02:50:00,2,109.00,"",121,28153.0,0,"",3,"",0.0010,""
"GSWS09_121",2018-10-05 16:08:00,3,109.00,"",121,28153.0,0,"",4,"",0.0010,""
"GSWS09_121",2018-10-06 05:26:00,4,109.00,"",121,28153.0,0,"",5,"",0.0230,""
"GSWS09_121",2018-10-06 18:44:00,5,109.00,"",121,28153.0,0,"",6,"",0.0040,""
"GSWS09_121",2018-10-07 08:02:00,6,109.00,"",121,28153.0,0,"",7,"",0.0010,""
"GSWS09_121",2018-10-07 21:20:00,7,109.00,"",121,28153.0,0,"",8,"",0.0010,""
"GSWS09_121",2018-10-08 10:38:00,8,109.00,"",121,28153.0,0,"",9,"",0.0010,""
"GSWS09_121",2018-10-08 23:56:00,9,109.00,"",121,28153.0,0,"",10,"",0.0010,""
"GSWS09_121",2018-10-09 13:14:00,10,109.00,"",121,28153.0,0,"",11,"",0.0010,""
"GSWS09_121",2018-10-10 02:32:00,11,109.00,"",121,28153.0,0,"",12,"",0.0010,""
"GSWS09_121",2018-10-10 15:50:00,12,109.00,"",121,28153.0,0,"",13,"",0.0010,""
"GSWS09_121",2018-10-11 05:08:00,13,109.00,"",121,28153.0,0,"",14,"",0.0010,""
"GSWS09_121",2018-10-11 18:26:00,14,109.00,"",121,28153.0,0,"",15,"",0.0010,""
"GSWS09_121",2018-10-12 07:44:00,15,109.00,"",121,28153.0,0,"",16,"",0.0010,""
"GSWS09_121",2018-10-12 21:02:00,16,109.00,"",121,28153.0,0,"",17,"",0.0010,""
"GSWS09_121",2018-10-13 10:20:00,17,109.00,"",121,28153.0,0,"",18,"",0.0010,""
"GSWS09_121",2018-10-13 23:38:00,18,109.00,"",121,28153.0,0,"",19,"",0.0010,""
"GSWS09_121",2018-10-14 12:56:00,19,109.00,"",121,28153.0,0,"",20,"",0.0010,""
"GSWS09_121",2018-10-15 02:14:00,20,109.00,"",121,28153.0,0,"",21,"",0.0010,""
"GSWS09_121",2018-10-15 15:32:00,21,109.00,"",121,28153.0,0,"",22,"",0.0010,""
"GSWS09_121",2018-10-16 04:50:00,22,109.00,"",121,28153.0,0,"",23,"",0.0010,""
"GSWS09_121",2018-10-16 18:08:00,23,109.00,"",121,28153.0,0,"",24,"",0.0020,""
"GSWS09_121",2018-10-17 07:26:00,24,109.00,"",121,28153.0,0,"",25,"",0.0010,""
"GSWS09_121",2018-10-17 20:44:00,25,109.00,"",121,28153.0,0,"",26,"",0.0040,""
"GSWS09_121",2018-10-18 10:02:00,26,109.00,"",121,28153.0,0,"",27,"",0.0030,""
"GSWS09_121",2018-10-18 23:20:00,27,109.00,"",121,28153.0,0,"",28,"",0.0050,""
"GSWS09_121",2018-10-19 12:38:00,28,109.00,"",121,28153.0,0,"",29,"",0.0080,""
"GSWS09_121",2018-10-20 01:56:00,29,109.00,"",121,28153.0,0,"",30,"",0.0010,""
"GSWS09_121",2018-10-20 15:14:00,30,109.00,"",121,28153.0,0,"",31,"",0.0010,""
"GSWS09_121",2018-10-21 04:32:00,31,109.00,"",121,28153.0,0,"",32,"",0.0010,""
"GSWS09_121",2018-10-21 17:50:00,32,109.00,"",121,28153.0,0,"",33,"",0.0030,""
"GSWS09_121",2018-10-22 07:08:00,33,109.00,"",121,28153.0,0,"",34,"",0.0010,""
"GSWS09_121",2018-10-22 20:26:00,34,109.00,"",121,28153.0,0,"",35,"",0.0030,""
"GSWS09_121",2018-10-23 09:44:00,35,109.00,"",121,28153.0,0,"",36,"",0.0020,""
"GSWS09_121",2018-10-23 23:02:00,36,109.00,"",121,28153.0,0,"",37,"",0.0040,""
"GSWS09_121",2018-10-24 12:20:00,37,109.00,"",121,28153.0,0,"",38,"",0.0050,""
"GSWS09_121",2018-10-24 16:16:45,38,109.00,"",121,28153.0,0,"",39,"",0.0010,""
"GSWS09_121",2018-10-25 01:38:00,39,109.00,"",121,28153.0,0,"",1,"",0.0010,""
"GSWS09_121",2018-10-25 14:56:00,40,109.00,"",121,28153.0,0,"",2,"",0.0010,""
"GSWS09_121",2018-10-26 04:14:00,41,109.00,"",121,28153.0,0,"",3,"",0.0010,""
"GSWS09_121",2018-10-26 17:32:00,42,109.00,"",121,28153.0,0,"",4,"",0.0010,""
"GSWS09_121",2018-10-27 06:50:00,43,109.00,"",121,28153.0,0,"",5,"",0.0010,""
"GSWS09_121",2018-10-27 20:08:00,44,109.00,"",121,28153.0,0,"",6,"",0.0010,""
"GSWS09_121",2018-10-28 09:26:00,45,109.00,"",121,28153.0,0,"",7,"",0.0040,""
"GSWS09_121",2018-10-28 22:44:00,46,109.00,"",121,28153.0,0,"",8,"",0.0400,""
"GSWS09_121",2018-10-29 12:02:00,47,109.00,"",121,28153.0,0,"",9,"",0.0510,""
"GSWS09_121",2018-10-30 01:20:00,48,109.00,"",121,28153.0,0,"",10,"",0.0150,""
"GSWS09_121",2018-10-30 14:38:00,49,109.00,"",121,28153.0,0,"",11,"",0.0080,""
"GSWS09_121",2018-10-31 03:56:00,50,109.00,"",121,28153.0,0,"",12,"",0.0070,""
"GSWS09_121",2018-10-31 17:14:00,51,109.00,"",121,28153.0,0,"",13,"",0.0550,""
"GSWS09_121",2018-11-01 06:32:00,52,109.00,"",121,28153.0,0,"",14,"",0.0420,""
"GSWS09_121",2018-11-01 19:50:00,53,109.00,"",121,28153.0,0,"",15,"",0.0200,""
"GSWS09_121",2018-11-02 09:08:00,54,109.00,"",121,28153.0,0,"",16,"",0.0300,""
"GSWS09_121",2018-11-02 22:26:00,55,109.00,"",121,28153.0,0,"",17,"",0.0200,""
"GSWS09_121",2018-11-03 11:44:00,56,109.00,"",121,28153.0,0,"",18,"",0.0120,""
"GSWS09_121",2018-11-04 01:02:00,57,109.00,"",121,28153.0,0,"",19,"",0.0070,""
"GSWS09_121",2018-11-04 08:54:00,58,109.00,"",121,28153.0,0,"",20,"",0.1010,""
"GSWS09_121",2018-11-04 22:12:00,59,109.00,"",121,28153.0,0,"",21,"",0.0290,""
"GSWS09_121",2018-11-05 11:30:00,60,109.00,"",121,28153.0,0,"",22,"",0.0140,""
"GSWS09_121",2018-11-06 00:48:00,61,109.00,"",121,28153.0,0,"",23,"",0.0110,""
"GSWS09_121",2018-11-06 14:06:00,62,109.00,"",121,28153.0,0,"",24,"",0.0090,""
"GSWS09_121",2018-11-07 03:24:00,63,109.00,"",121,28153.0,0,"",25,"",0.0050,""
"GSWS09_121",2018-11-07 16:42:00,64,109.00,"",121,28153.0,0,"",26,"",0.0040,""
"GSWS09_121",2018-11-08 06:00:00,65,109.00,"",121,28153.0,0,"",27,"",0.0030,""
"GSWS09_121",2018-11-08 19:18:00,66,109.00,"",121,28153.0,0,"",28,"",0.0040,""
"GSWS09_121",2018-11-09 08:36:00,67,109.00,"",121,28153.0,0,"",29,"",0.0020,""
"GSWS09_121",2018-11-10 13:11:00,68,109.00,"",121,28153.0,0,"",30,"",0.0010,""
"GSWS09_121",2018-11-10 13:14:00,69,109.00,"",121,28153.0,0,"",31,"",0.0010,""
"GSWS09_121",2018-11-10 13:15:00,70,109.00,"",121,28153.0,0,"",32,"",0.0010,""
"GSWS09_121",2018-11-11 00:30:00,71,109.00,"",121,28153.0,0,"",33,"",0.0010,""
"GSWS09_121",2018-11-11 13:48:00,72,109.00,"",121,28153.0,0,"",34,"",0.0010,""
"GSWS09_121",2018-11-12 03:06:00,73,109.00,"",121,28153.0,0,"",35,"",0.0010,""
"GSWS09_121",2018-11-12 16:24:00,74,109.00,"",121,28153.0,0,"",36,"",0.0010,""
"GSWS09_121",2018-11-13 05:42:00,75,109.00,"",121,28153.0,0,"",37,"",0.0010,""
"GSWS09_121",2018-11-13 14:32:30,76,109.00,"",121,28153.0,0,"",38,"",0.0010,""
"GSWS09_121",2018-11-13 19:00:00,77,109.00,"",121,28153.0,0,"",1,"",0.0010,""
"GSWS09_121",2018-11-14 08:18:00,78,109.00,"",121,28153.0,0,"",2,"",0.0010,""
"GSWS09_121",2018-11-14 21:36:00,79,109.00,"",121,28153.0,0,"",3,"",0.0010,""
"GSWS09_121",2018-11-15 10:54:00,80,109.00,"",121,28153.0,0,"",4,"",0.0010,""
"GSWS09_121",2018-11-16 00:12:00,81,109.00,"",121,28153.0,0,"",5,"",0.0010,""
"GSWS09_121",2018-11-16 13:30:00,82,109.00,"",121,28153.0,0,"",6,"",0.0010,""
"GSWS09_121",2018-11-17 02:48:00,83,109.00,"",121,28153.0,0,"",7,"",0.0010,""
"GSWS09_121",2018-11-17 16:06:00,84,109.00,"",121,28153.0,0,"",8,"",0.0010,""
"GSWS09_121",2018-11-18 05:24:00,85,109.00,"",121,28153.0,0,"",9,"",0.0010,""
"GSWS09_121",2018-11-18 18:42:00,86,109.00,"",121,28153.0,0,"",10,"",0.0010,""
"GSWS09_121",2018-11-19 08:00:00,87,109.00,"",121,28153.0,0,"",11,"",0.0010,""
"GSWS09_121",2018-11-19 21:18:00,88,109.00,"",121,28153.0,0,"",12,"",0.0010,""
"GSWS09_121",2018-11-20 10:36:00,89,109.00,"",121,28153.0,0,"",13,"",0.0010,""
"GSWS09_121",2018-11-20 23:54:00,90,109.00,"",121,28153.0,0,"",14,"",0.0010,""
"GSWS09_121",2018-11-21 13:12:00,91,109.00,"",121,28153.0,0,"",15,"",0.0050,""
"GSWS09_121",2018-11-22 02:30:00,92,109.00,"",121,28153.0,0,"",16,"",0.0010,""
"GSWS09_121",2018-11-22 15:48:00,93,109.00,"",121,28153.0,0,"",17,"",0.0120,""
"GSWS09_121",2018-11-23 05:06:00,94,109.00,"",121,28153.0,0,"",18,"",0.0320,""
"GSWS09_121",2018-11-23 11:44:00,95,109.00,"",121,28153.0,0,"",19,"",0.1050,""
"GSWS09_121",2018-11-23 18:22:00,96,109.00,"",121,28153.0,0,"",20,"",0.1070,""
"GSWS09_121",2018-11-24 01:00:00,97,109.00,"",121,28153.0,0,"",21,"",0.1190,""
"GSWS09_121",2018-11-24 14:18:00,98,109.00,"",121,28153.0,0,"",22,"",0.0430,""
"GSWS09_121",2018-11-25 03:36:00,99,109.00,"",121,28153.0,0,"",23,"",0.0180,""
"GSWS09_121",2018-11-25 16:54:00,100,109.00,"",121,28153.0,0,"",24,"",0.0120,""
"GSWS09_121",2018-11-26 06:12:00,101,109.00,"",121,28153.0,0,"",25,"",0.0090,""
"GSWS09_121",2018-11-26 19:30:00,102,109.00,"",121,28153.0,0,"",26,"",0.0080,""
"GSWS09_121",2018-11-27 08:04:30,103,109.00,"",121,28153.0,0,"",27,"",0.1000,""
"GSWS09_121",2018-11-27 10:46:30,104,109.00,"",121,28153.0,0,"",28,"",0.2870,""
"GSWS09_121",2018-11-27 17:24:30,105,109.00,"",121,28153.0,0,"",29,"",0.1490,""
"GSWS09_121",2018-11-27 21:50:30,106,109.00,"",121,28153.0,0,"",30,"",0.2250,""
"GSWS09_121",2018-11-28 04:28:30,107,109.00,"",121,28153.0,0,"",31,"",0.1270,""
"GSWS09_121",2018-11-28 11:06:30,108,109.00,"",121,28153.0,0,"",32,"",0.1140,""
"GSWS09_121",2018-11-29 00:24:30,109,109.00,"",121,28153.0,0,"",33,"",0.0710,""
"GSWS09_121",2018-11-29 13:42:30,110,109.00,"",121,28153.0,0,"",34,"",0.0350,""
"GSWS09_121",2018-11-30 03:00:30,111,109.00,"",121,28153.0,0,"",35,"",0.0230,""
"GSWS09_121",2018-11-30 16:18:30,112,109.00,"",121,28153.0,0,"",36,"",0.0540,""
"GSWS09_121",2018-11-30 22:56:30,113,109.00,"",121,28153.0,0,"",37,"",0.1090,""
"GSWS09_121",2018-12-01 12:14:30,114,109.00,"",121,28153.0,0,"",38,"",0.0860,""
"GSWS09_121",2018-12-02 01:32:30,115,109.00,"",121,28153.0,0,"",39,"",0.0650,""
"GSWS09_121",2018-12-02 14:50:30,116,109.00,"",121,28153.0,0,"",40,"",0.0540,""
"GSWS09_121",2018-12-03 04:08:30,117,109.00,"",121,28153.0,0,"",41,"",0.0360,""
"GSWS09_121",2018-12-03 17:26:30,118,109.00,"",121,28153.0,0,"",42,"",0.0230,""
"GSWS09_121",2018-12-04 06:44:30,119,109.00,"",121,28153.0,0,"",43,"",0.0160,""
"GSWS09_121",2018-12-04 20:02:30,120,109.00,"",121,28153.0,0,"",1,"",0.0180,""
"GSWS09_121",2018-12-05 09:20:30,121,109.00,"",121,28153.0,0,"",2,"",0.0160,""
"GSWS09_121",2018-12-05 22:38:30,122,109.00,"",121,28153.0,0,"",3,"",0.0140,""
"GSWS09_121",2018-12-06 11:56:30,123,109.00,"",121,28153.0,0,"",4,"",0.0130,""
"GSWS09_121",2018-12-07 01:14:30,124,109.00,"",121,28153.0,0,"",5,"",0.0120,""
"GSWS09_121",2018-12-07 14:32:30,125,109.00,"",121,28153.0,0,"",6,"",0.0120,""
"GSWS09_121",2018-12-08 03:50:30,126,109.00,"",121,28153.0,0,"",7,"",0.0110,""
"GSWS09_121",2018-12-08 17:08:30,127,109.00,"",121,28153.0,0,"",8,"",0.0100,""
"GSWS09_121",2018-12-09 06:26:30,128,109.00,"",121,28153.0,0,"",9,"",0.0100,""
"GSWS09_121",2018-12-09 19:44:30,129,109.00,"",121,28153.0,0,"",10,"",0.0100,""
"GSWS09_121",2018-12-10 09:02:30,130,109.00,"",121,28153.0,0,"",11,"",0.0960,""
"GSWS09_121",2018-12-10 22:20:30,131,109.00,"",121,28153.0,0,"",12,"",0.0520,""
"GSWS09_121",2018-12-11 11:38:30,132,109.00,"",121,28153.0,0,"",13,"",0.0340,""
"GSWS09_121",2018-12-11 18:16:30,133,109.00,"",121,28153.0,0,"",14,"",0.1370,""
"GSWS09_121",2018-12-11 20:58:30,134,109.00,"",121,28153.0,0,"",15,"",0.3040,""
"GSWS09_121",2018-12-12 00:20:30,135,109.00,"",121,28153.0,0,"",16,"",0.2660,""
"GSWS09_121",2018-12-12 04:46:30,136,109.00,"",121,28153.0,0,"",17,"",0.1900,""
"GSWS09_121",2018-12-12 11:24:30,137,109.00,"",121,28153.0,0,"",18,"",0.1190,""
"GSWS09_121",2018-12-13 00:42:30,138,109.00,"",121,28153.0,0,"",19,"",0.0700,""
"GSWS09_121",2018-12-13 14:00:30,139,109.00,"",121,28153.0,0,"",20,"",0.0430,""
"GSWS09_121",2018-12-14 03:18:30,140,109.00,"",121,28153.0,0,"",21,"",0.0280,""
"GSWS09_121",2018-12-14 16:36:30,141,109.00,"",121,28153.0,0,"",22,"",0.0220,""
"GSWS09_121",2018-12-15 05:54:30,142,109.00,"",121,28153.0,0,"",23,"",0.0230,""
"GSWS09_121",2018-12-15 19:12:30,143,109.00,"",121,28153.0,0,"",24,"",0.0200,""
"GSWS09_121",2018-12-16 08:30:30,144,109.00,"",121,28153.0,0,"",25,"",0.0180,""
"GSWS09_121",2018-12-16 21:48:30,145,109.00,"",121,28153.0,0,"",26,"",0.0280,""
"GSWS09_121",2018-12-17 11:06:30,146,109.00,"",121,28153.0,0,"",27,"",0.0270,""
"GSWS09_121",2018-12-18 00:24:30,147,109.00,"",121,28153.0,0,"",28,"",0.0480,""
"GSWS09_121",2018-12-18 04:50:30,148,109.00,"",121,28153.0,0,"",29,"",0.1750,""
"GSWS09_121",2018-12-18 07:32:30,149,109.00,"",121,28153.0,0,"",30,"",0.3090,""
"GSWS09_121",2018-12-18 09:42:45,150,109.00,"",121,28153.0,0,"",31,"",0.3780,""
"GSWS09_121",2018-12-18 11:22:45,151,109.00,"",121,28153.0,0,"",32,"",0.4320,""
"GSWS09_121",2018-12-18 13:16:45,152,109.00,"",121,28153.0,0,"",33,"",0.3790,""
"GSWS09_121",2018-12-18 15:58:45,153,109.00,"",121,28153.0,0,"",34,"",0.2900,""
"GSWS09_121",2018-12-18 20:24:45,154,109.00,"",121,28153.0,0,"",35,"",0.1940,""
"GSWS09_121",2018-12-19 03:02:45,155,109.00,"",121,28153.0,0,"",36,"",0.1230,""
"GSWS09_121",2018-12-19 16:20:45,156,109.00,"",121,28153.0,0,"",37,"",0.0750,""
"GSWS09_121",2018-12-20 05:38:45,157,109.00,"",121,28153.0,0,"",38,"",0.0500,""
"GSWS09_121",2018-12-20 15:15:45,158,109.00,"",121,28153.0,0,"",39,"",0.1000,""
"GSWS09_121",2018-12-20 21:53:45,159,109.00,"",121,28153.0,0,"",40,"",0.1250,""
"GSWS09_121",2018-12-21 11:11:45,160,109.00,"",121,28153.0,0,"",41,"",0.0830,""
"GSWS09_121",2018-12-22 00:29:45,161,109.00,"",121,28153.0,0,"",42,"",0.0590,""
"GSWS09_121",2018-12-22 13:47:45,162,109.00,"",121,28153.0,0,"",43,"",0.0420,""
"GSWS09_121",2018-12-23 02:48:30,163,109.00,"",121,28153.0,0,"",44,"",0.1000,""
"GSWS09_121",2018-12-23 09:26:30,164,109.00,"",121,28153.0,0,"",45,"",0.1020,""
"GSWS09_121",2018-12-23 16:04:30,165,109.00,"",121,28153.0,0,"",46,"",0.1630,""
"GSWS09_121",2018-12-23 19:56:30,166,109.00,"",121,28153.0,0,"",47,"",0.2250,""
"GSWS09_121",2018-12-23 22:38:30,167,109.00,"",121,28153.0,0,"",48,"",0.2980,""
"GSWS09_121",2018-12-24 00:52:30,168,109.00,"",121,28153.0,0,"",49,"",0.3510,""
"GSWS09_121",2018-12-24 03:06:30,169,109.00,"",121,28153.0,0,"",50,"",0.3670,""
"GSWS09_121",2018-12-24 05:20:30,170,109.00,"",121,28153.0,0,"",51,"",0.3520,""
"GSWS09_121",2018-12-24 08:02:30,171,109.00,"",121,28153.0,0,"",52,"",0.3000,""
"GSWS09_121",2018-12-24 11:24:30,172,109.00,"",121,28153.0,0,"",53,"",0.2370,""
"GSWS09_121",2018-12-24 15:50:30,173,109.00,"",121,28153.0,0,"",54,"",0.1820,""
"GSWS09_121",2018-12-24 22:28:30,174,109.00,"",121,28153.0,0,"",55,"",0.1340,""
"GSWS09_121",2018-12-25 05:06:30,175,109.00,"",121,28153.0,0,"",56,"",0.1140,""
"GSWS09_121",2018-12-25 18:24:30,176,109.00,"",121,28153.0,0,"",57,"",0.0850,""
"GSWS09_121",2018-12-26 07:42:30,177,109.00,"",121,28153.0,0,"",58,"",0.0670,""
"GSWS09_121",2018-12-26 20:03:15,178,109.00,"",121,28153.0,0,"",59,"",0.1000,""
"GSWS09_121",2018-12-27 02:41:15,179,109.00,"",121,28153.0,0,"",60,"",0.1270,""
"GSWS09_121",2018-12-27 09:19:15,180,109.00,"",121,28153.0,0,"",61,"",0.1160,""
"GSWS09_121",2018-12-27 15:57:15,181,109.00,"",121,28153.0,0,"",62,"",0.1010,""
"GSWS09_121",2018-12-28 05:15:15,182,109.00,"",121,28153.0,0,"",63,"",0.0770,""
"GSWS09_121",2018-12-28 16:14:30,183,109.00,"",121,28153.0,0,"",64,"",0.0630,""
"GSWS09_121",2018-12-28 18:33:15,184,109.00,"",121,28153.0,0,"",1,"",0.0600,""
"GSWS09_121",2018-12-29 07:51:15,185,109.00,"",121,28153.0,0,"",2,"",0.0470,""
"GSWS09_121",2018-12-29 21:09:15,186,109.00,"",121,28153.0,0,"",3,"",0.0420,""
"GSWS09_121",2018-12-30 01:35:15,187,109.00,"",121,28153.0,0,"",4,"",0.2160,""
"GSWS09_121",2018-12-30 06:01:15,188,109.00,"",121,28153.0,0,"",5,"",0.1810,""
"GSWS09_121",2018-12-30 12:39:15,189,109.00,"",121,28153.0,0,"",6,"",0.1230,""
"GSWS09_121",2018-12-30 19:17:15,190,109.00,"",121,28153.0,0,"",7,"",0.1010,""
"GSWS09_121",2018-12-31 08:35:15,191,109.00,"",121,28153.0,0,"",8,"",0.0760,""
"GSWS09_121",2018-12-31 21:53:15,192,109.00,"",121,28153.0,0,"",9,"",0.0590,""
"GSWS09_121",2019-01-01 11:11:15,193,109.00,"",121,28153.0,0,"",10,"",0.0460,""
"GSWS09_121",2019-01-02 00:29:15,194,109.00,"",121,28153.0,0,"",11,"",0.0380,""
"GSWS09_121",2019-01-02 13:47:15,195,109.00,"",121,28153.0,0,"",12,"",0.0330,""
"GSWS09_121",2019-01-03 03:05:15,196,109.00,"",121,28153.0,0,"",13,"",0.0280,""
"GSWS09_121",2019-01-03 16:23:15,197,109.00,"",121,28153.0,0,"",14,"",0.0250,""
"GSWS09_121",2019-01-04 05:41:15,198,109.00,"",121,28153.0,0,"",15,"",0.0230,""
"GSWS09_121",2019-01-04 18:59:15,199,109.00,"",121,28153.0,0,"",16,"",0.0220,""
"GSWS09_121",2019-01-05 08:17:15,200,109.00,"",121,28153.0,0,"",17,"",0.0210,""
"GSWS09_121",2019-01-05 21:35:15,201,109.00,"",121,28153.0,0,"",18,"",0.0190,""
"GSWS09_121",2019-01-06 10:53:15,202,109.00,"",121,28153.0,0,"",19,"",0.0380,""
"GSWS09_121",2019-01-07 00:11:15,203,109.00,"",121,28153.0,0,"",20,"",0.0600,""
"GSWS09_121",2019-01-07 13:29:15,204,109.00,"",121,28153.0,0,"",21,"",0.0460,""
"GSWS09_121",2019-01-08 02:47:15,205,109.00,"",121,28153.0,0,"",22,"",0.0390,""
"GSWS09_121",2019-01-08 16:05:15,206,109.00,"",121,28153.0,0,"",23,"",0.0480,""
"GSWS09_121",2019-01-09 05:23:15,207,109.00,"",121,28153.0,0,"",24,"",0.0400,""
"GSWS09_121",2019-01-09 18:41:15,208,109.00,"",121,28153.0,0,"",25,"",0.0330,""
"GSWS09_121",2019-01-10 07:59:15,209,109.00,"",121,28153.0,0,"",26,"",0.0420,""
"GSWS09_121",2019-01-10 21:17:15,210,109.00,"",121,28153.0,0,"",27,"",0.0350,""
"GSWS09_121",2019-01-11 10:35:15,211,109.00,"",121,28153.0,0,"",28,"",0.0300,""
"GSWS09_121",2019-01-11 23:53:15,212,109.00,"",121,28153.0,0,"",29,"",0.0250,""
"GSWS09_121",2019-01-12 13:11:15,213,109.00,"",121,28153.0,0,"",30,"",0.0230,""
"GSWS09_121",2019-01-13 02:29:15,214,109.00,"",121,28153.0,0,"",31,"",0.0200,""
"GSWS09_121",2019-01-13 15:47:15,215,109.00,"",121,28153.0,0,"",32,"",0.0190,""
"GSWS09_121",2019-01-14 05:05:15,216,109.00,"",121,28153.0,0,"",33,"",0.0180,""
"GSWS09_121",2019-01-14 18:23:15,217,109.00,"",121,28153.0,0,"",34,"",0.0170,""
"GSWS09_121",2019-01-15 07:41:15,218,109.00,"",121,28153.0,0,"",35,"",0.0160,""
"GSWS09_121",2019-01-15 20:59:15,219,109.00,"",121,28153.0,0,"",36,"",0.0150,""
"GSWS09_121",2019-01-16 10:17:15,220,109.00,"",121,28153.0,0,"",37,"",0.0140,""
"GSWS09_121",2019-01-16 15:11:45,221,109.00,"",121,28153.0,0,"",38,"",0.0140,""
"GSWS09_121",2019-01-16 23:35:15,222,109.00,"",121,28153.0,0,"",1,"",0.0140,""
"GSWS09_121",2019-01-17 12:53:15,223,109.00,"",121,28153.0,0,"",2,"",0.0140,""
"GSWS09_121",2019-01-18 02:11:15,224,109.00,"",121,28153.0,0,"",3,"",0.0120,""
"GSWS09_121",2019-01-18 15:29:15,225,109.00,"",121,28153.0,0,"",4,"",0.0160,""
"GSWS09_121",2019-01-18 19:27:15,226,109.00,"",121,28153.0,0,"",5,"",0.2250,""
"GSWS09_121",2019-01-18 21:21:15,227,109.00,"",121,28153.0,0,"",6,"",0.3930,""
"GSWS09_121",2019-01-18 22:52:45,228,109.00,"",121,28153.0,0,"",7,"",0.4660,""
"GSWS09_121",2019-01-19 00:20:45,229,109.00,"",121,28153.0,0,"",8,"",0.5000,""
"GSWS09_121",2019-01-19 01:48:45,230,109.00,"",121,28153.0,0,"",9,"",0.4910,""
"GSWS09_121",2019-01-19 03:28:45,231,109.00,"",121,28153.0,0,"",10,"",0.4590,""
"GSWS09_121",2019-01-19 05:08:45,232,109.00,"",121,28153.0,0,"",11,"",0.4410,""
"GSWS09_121",2019-01-19 06:48:45,233,109.00,"",121,28153.0,0,"",12,"",0.4230,""
"GSWS09_121",2019-01-19 08:42:45,234,109.00,"",121,28153.0,0,"",13,"",0.3930,""
"GSWS09_121",2019-01-19 10:56:45,235,109.00,"",121,28153.0,0,"",14,"",0.3410,""
"GSWS09_121",2019-01-19 13:38:45,236,109.00,"",121,28153.0,0,"",15,"",0.2850,""
"GSWS09_121",2019-01-19 17:00:45,237,109.00,"",121,28153.0,0,"",16,"",0.2620,""
"GSWS09_121",2019-01-19 20:22:45,238,109.00,"",121,28153.0,0,"",17,"",0.2440,""
"GSWS09_121",2019-01-20 00:48:45,239,109.00,"",121,28153.0,0,"",18,"",0.1880,""
"GSWS09_121",2019-01-20 05:14:45,240,109.00,"",121,28153.0,0,"",19,"",0.1860,""
"GSWS09_121",2019-01-20 08:36:45,241,109.00,"",121,28153.0,0,"",20,"",0.2590,""
"GSWS09_121",2019-01-20 11:58:45,242,109.00,"",121,28153.0,0,"",21,"",0.2410,""
"GSWS09_121",2019-01-20 16:24:45,243,109.00,"",121,28153.0,0,"",22,"",0.1900,""
"GSWS09_121",2019-01-20 23:02:45,244,109.00,"",121,28153.0,0,"",23,"",0.1420,""
"GSWS09_121",2019-01-21 05:40:45,245,109.00,"",121,28153.0,0,"",24,"",0.1170,""
"GSWS09_121",2019-01-21 12:18:45,246,109.00,"",121,28153.0,0,"",25,"",0.1010,""
"GSWS09_121",2019-01-22 01:36:45,247,109.00,"",121,28153.0,0,"",26,"",0.0810,""
"GSWS09_121",2019-01-22 14:54:45,248,109.00,"",121,28153.0,0,"",27,"",0.0700,""
"GSWS09_121",2019-01-23 02:04:15,249,109.00,"",121,28153.0,0,"",28,"",0.1000,""
"GSWS09_121",2019-01-23 06:30:15,250,109.00,"",121,28153.0,0,"",29,"",0.2250,""
"GSWS09_121",2019-01-23 10:56:15,251,109.00,"",121,28153.0,0,"",30,"",0.1780,""
"GSWS09_121",2019-01-23 17:34:15,252,109.00,"",121,28153.0,0,"",31,"",0.1350,""
"GSWS09_121",2019-01-24 00:12:15,253,109.00,"",121,28153.0,0,"",32,"",0.1130,""
"GSWS09_121",2019-01-24 13:30:15,254,109.00,"",121,28153.0,0,"",33,"",0.0890,""
"GSWS09_121",2019-01-25 02:48:15,255,109.00,"",121,28153.0,0,"",34,"",0.0740,""
"GSWS09_121",2019-01-25 16:06:15,256,109.00,"",121,28153.0,0,"",35,"",0.0640,""
"GSWS09_121",2019-01-26 05:24:15,257,109.00,"",121,28153.0,0,"",36,"",0.0540,""
"GSWS09_121",2019-01-26 18:42:15,258,109.00,"",121,28153.0,0,"",37,"",0.0470,""
"GSWS09_121",2019-01-27 08:00:15,259,109.00,"",121,28153.0,0,"",38,"",0.0420,""
"GSWS09_121",2019-01-27 21:18:15,260,109.00,"",121,28153.0,0,"",39,"",0.0380,""
"GSWS09_121",2019-01-28 10:36:15,261,109.00,"",121,28153.0,0,"",40,"",0.0350,""
"GSWS09_121",2019-01-28 23:54:15,262,109.00,"",121,28153.0,0,"",41,"",0.0310,""
"GSWS09_121",2019-01-29 13:12:15,263,109.00,"",121,28153.0,0,"",42,"",0.0290,""
"GSWS09_121",2019-01-30 02:30:15,264,109.00,"",121,28153.0,0,"",43,"",0.0270,""
"GSWS09_121",2019-01-30 15:48:15,265,109.00,"",121,28153.0,0,"",44,"",0.0260,""
"GSWS09_121",2019-01-31 05:06:15,266,109.00,"",121,28153.0,0,"",45,"",0.0250,""
"GSWS09_121",2019-01-31 18:24:15,267,109.00,"",121,28153.0,0,"",46,"",0.0230,""
"GSWS09_121",2019-02-01 07:42:15,268,109.00,"",121,28153.0,0,"",47,"",0.0230,""
"GSWS09_121",2019-02-01 21:00:15,269,109.00,"",121,28153.0,0,"",48,"",0.0230,""
"GSWS09_121",2019-02-02 10:18:15,270,109.00,"",121,28153.0,0,"",49,"",0.0230,""
"GSWS09_121",2019-02-02 23:36:15,271,109.00,"",121,28153.0,0,"",50,"",0.0230,""
"GSWS09_121",2019-02-03 12:54:15,272,109.00,"",121,28153.0,0,"",51,"",0.0510,""
"GSWS09_121",2019-02-04 02:12:15,273,109.00,"",121,28153.0,0,"",52,"",0.0380,""
"GSWS09_121",2019-02-04 15:30:15,274,109.00,"",121,28153.0,0,"",53,"",0.0340,""
"GSWS09_121",2019-02-05 04:48:15,275,109.00,"",121,28153.0,0,"",54,"",0.0320,""
"GSWS09_121",2019-02-05 18:06:15,276,109.00,"",121,28153.0,0,"",55,"",0.0290,""
"GSWS09_121",2019-02-06 07:24:15,277,109.00,"",121,28153.0,0,"",56,"",0.0260,""
"GSWS09_121",2019-02-06 19:06:00,278,109.00,"",121,28153.0,0,"",57,"",0.0250,""
"GSWS09_121",2019-02-06 20:42:15,279,109.00,"",121,28153.0,0,"",1,"",0.0240,""
"GSWS09_121",2019-02-07 10:00:15,280,109.00,"",121,28153.0,0,"",2,"",0.0230,""
"GSWS09_121",2019-02-07 23:18:15,281,109.00,"",121,28153.0,0,"",3,"",0.0230,""
"GSWS09_121",2019-02-08 12:36:15,282,109.00,"",121,28153.0,0,"",4,"",0.0230,""
"GSWS09_121",2019-02-09 01:54:15,283,109.00,"",121,28153.0,0,"",5,"",0.0270,""
"GSWS09_121",2019-02-09 15:12:15,284,109.00,"",121,28153.0,0,"",6,"",0.0690,""
"GSWS09_121",2019-02-10 04:30:15,285,109.00,"",121,28153.0,0,"",7,"",0.0570,""